Regional Weather Roundup
Issued by NWS Charleston, SC

Current Version | Previous Version | Graphics & Text | Print | Product List | Glossary On
Versions: 1 2 3 4 5 6 7 8 9 10 11 12 13 14 15 16 17 18 19 20 21 22 23 24 25 26 27 28 29 30 31 32 33 34 35 36 37 38 39 40 41 42 43 44 45 46 47 48 49 50
475
ASUS42 KCHS 232013
RWRCHS

REGIONAL WEATHER ROUNDUP
NATIONAL WEATHER SERVICE CHARLESTON SC
400 PM EDT MON MAY 23 2016

NOTE: "FAIR" INDICATES FEW OR NO CLOUDS BELOW 12,000 FEET WITH NO
SIGNIFICANT WEATHER AND/OR OBSTRUCTIONS TO VISIBILITY.

NOT ALL STATIONS ARE QUALITY CONTROLLED. USE DATA WITH CAUTION...
ESPECIALLY DEWPOINT OBSERVATIONS.

SCZ027-030-031-034>040-042>050-232100-
...SOUTHEAST SOUTH CAROLINA...

CITY           SKY/WX    TMP DP  RH WIND       PRES   REMARKS
N CHARLESTON   MOSUNNY   79  49  34 N6        29.95S
WATERFRONT PRK   N/A     78  51  38 NW6       29.92F
MOUNT PLEASANT FAIR      77  52  41 NW10      29.95S
JOHNS ISLAND   FAIR      79  54  41 NW10      29.95S
PINOPOLIS        N/A     77  54  44 N6        29.90R
MONCKS CORNER  FAIR      73  45  35 N8        29.96S
SUMMERVILLE    FAIR      77  52  41 N8        29.97S
BEAUFORT MCAS  MOSUNNY   82  49  31 N8        29.95S
BEAUFORT ARPT  MOCLDY    81  45  28 NW6       29.94F
HILTON HEAD IS MOSUNNY   84  50  30 N12       29.95F
WALTERBORO     MOCLDY    79  45  29 N8        29.96S
ALLENDALE      FAIR      79  48  34 VRB6      29.95S

...SOUTHERN MIDLANDS AND PEE DEE...

CITY           SKY/WX    TMP DP  RH WIND       PRES   REMARKS
GEORGETOWN     CLOUDY    72  50  46 N9        29.97S
KINGSTREE      CLOUDY    73  48  40 NW5       29.96F
ORANGEBURG     CLOUDY    77  48  35 N7        29.96F
BARNWELL       FAIR      82  52  34 NW7       29.96F
AIKEN          FAIR      75  46  35 NW6       30.00S
MANNING        MOCLDY    72  50  46 N7        29.97S
COLUMBIA       PTSUNNY   78  49  35 N8        29.96S
SUMTER         CLOUDY    73  51  44 N10       29.95S
FLORENCE       CLOUDY    71  53  52 N10       29.97S
MYRTLE BEACH   PTSUNNY   73  48  40 NW7       29.97S
N MYRTLE BEACH CLOUDY    71  53  52 NW9       29.95S

$$

GAZ063-065-086>088-099>101-113>116-118-119-134>141-150-232100-
...SOUTHEAST GEORGIA...

CITY           SKY/WX    TMP DP  RH WIND       PRES   REMARKS
SAVANNAH ARPT  MOSUNNY   83  48  29 CALM      29.94F
HUNTER AAF     MOSUNNY   83  50  32 NW8G17    29.92F
FORT STEWART   SUNNY     83  47  28 NW7       29.92F
STATESBORO     SUNNY     82  51  33 W7        29.95F
SYLVANIA       PTCLDY    84  48  28 NW5       29.96F
CLAXTON        FAIR      81  51  34 CALM      29.95F

...CSRA...CENTRAL AND FAR SOUTHEAST GEORGIA...

CITY           SKY/WX    TMP DP  RH WIND       PRES   REMARKS
THOMSON        SUNNY     82  50  33 W8        30.00F
AUGUSTA-BUSH   SUNNY     79  48  33 NE8       29.95F
AUGUSTA-DANIEL MOSUNNY   81  48  31 NW7       29.97S
SWAINSBORO     FAIR      81  46  30 NW6       29.96F
VIDALIA        MOSUNNY   81  46  30 NW3       29.96S
EASTMAN        FAIR      84  47  26 NE6       29.98F
HAZLEHURST     FAIR      84  46  26 CALM      29.94F
ALMA           PTSUNNY   83  51  33 CALM      29.94F
WAYCROSS       MOSUNNY   83  53  35 N8        29.94F
JESUP          MOCLDY    79  48  34 NW3       29.94F
BAXLEY         FAIR      86  46  25 NW7       29.94F
BRUNSWICK      PTSUNNY   84  55  37 S7        29.94F
SAINT SIMONS   MOSUNNY   80  56  43 SE13      29.94F

$$

SCZ027-028-034-036>038-045-046-048>050-GAZ119-141-232100-
...LAKE AND SUPPLEMENTAL COASTAL OBSERVATIONS...

STATION/POSITION TIME  TEMP    WIND        PRES    WAVE   SWELL
                       AIR SEA DIR/SP/G            HT/PER HT/PER/DIR
                 (UTC) (F)     (DEG/KT/KT) (MB)    (FT/S) (FT/S/D)
WINYAH BAY       1845   72     310/  7     1014.0
LAKE MURRAY      1900   73      40/  5/  8 1014.2F
ACE BASIN NERRS  NOT AVBL
FORT PULASKI     1900   74 75   60/ 10/ 11 1014.6F
SAPELO ISLAND    1900   82     120/  8     1014.0S

$$

ANZ835-935-AMZ111-154-330-350-352-354-370-450-454-472-232100-
...C-MAN AND BUOY OBSERVATIONS...

STATION/POSITION TIME  TEMP    WIND        PRES    WAVE   SWELL
                       AIR SEA DIR/SP/G            HT/PER HT/PER/DIR
                 (UTC) (F)     (DEG/KT/KT) (MB)    (FT/S) (FT/S/D)
BUOY 41004       1950   71 75  330/  6/  8 1013.9F   2/ 9   2/ 9
BUOY 41008       NOT AVBL
FOLLY BEACH CMAN 1900   73     170/  7/  8 1014.6F
CAPERS NEARSHORE 1908   74 75  280/  4/  8 1014.2F
FRIPP NEARSHORE  1908   74 77  150/  6/  8 1013.9F


STATION/POSITION TIME  TEMP    WIND        PRES    WAVE   SWELL
                       AIR SEA DIR/SP/G            HT/PER HT/PER/DIR
                 (UTC) (F)     (DEG/KT/KT) (MB)    (FT/S) (FT/S/D)
5E ST. MARYS GA  1921      80                N/A     2/ 9
FRYING PAN BUOY  1900   68 76  290/ 16/ 21 1013.8R
BUOY 41025       1950   63 66  290/ 14/ 16 1011.6F   3/ 8   2/100/ 8
CAPE LOOKOUT NC  2000   65     290/ 14/ 17 1012.0F
BUOY 41002       1950   73 77  300/  6/ 12 1012.9F   5/ 7   5/ 20/ 7
BUOY 41010       1920   78 80  340/  6/  8 1013.9F
ST AUGUSTINE FL  2000   76 81   40/ 10/ 11 1015.0F


$$




USA.gov is the U.S. government's official web portal to all federal, state and local government web resources and services.